When you browse on this site, cookies collect data to enhance your experience and personalize the content and advertising you see.
Visit our Privacy Policy to learn more. By continuing to use the site, you agree to this use of cookies and data.
  • In Switzerland
  • List of Countries
  • For 7 days
  • Water Temperature
  • Satellite Maps
  • Weather Map
  • Weather Widgets
  • user-avatar
    Login

    Hourly Weather Kazmirow

    Today, 21 February, Thursday

    Time Temperature Precipitation Wind Pressure Humidity
    00:00 +3°C° 0 mm 3 mps 753 mmHg 86%
    01:00 +4°C° 0 mm 3 mps 753 mmHg 86%
    02:00 +4°C° 0 mm 3 mps 753 mmHg 87%
    03:00 +4°C° 0 mm 3 mps 753 mmHg 87%
    04:00 +4°C° 0 mm 4 mps 753 mmHg 88%
    05:00 +3°C° 0 mm 4 mps 753 mmHg 89%
    06:00 +3°C° 0 mm 4 mps 753 mmHg 90%
    07:00 +1°C° 0 mm 4 mps 753 mmHg 90%
    08:00 +3°C° 0 mm 4 mps 753 mmHg 86%
    09:00 +3°C° 0 mm 5 mps 753 mmHg 81%
    10:00 +5°C° 0 mm 5 mps 752 mmHg 76%
    11:00 +5°C° 0.2 mm 5 mps 752 mmHg 77%
    12:00 +6°C° 0.2 mm 5 mps 752 mmHg 77%
    13:00 +6°C° 0.2 mm 5 mps 752 mmHg 78%
    14:00 +4°C° 0.8 mm 6 mps 752 mmHg 79%
    15:00 +4°C° 0.8 mm 6 mps 751 mmHg 81%
    16:00 +4°C° 0.8 mm 6 mps 751 mmHg 82%
    17:00 +4°C° 0.5 mm 6 mps 751 mmHg 84%
    18:00 +4°C° 0.5 mm 6 mps 751 mmHg 85%
    19:00 +5°C° 0.5 mm 5 mps 751 mmHg 86%
    20:00 +4°C° 0.2 mm 6 mps 750 mmHg 87%
    21:00 +4°C° 0.2 mm 6 mps 750 mmHg 89%
    22:00 +5°C° 0.2 mm 6 mps 750 mmHg 90%
    23:00 +5°C° 0.4 mm 6 mps 750 mmHg 91%

    Tomorrow, 22 February, Friday

    Time Temperature Precipitation Wind Pressure Humidity
    00:00 +6°C° 0.4 mm 5 mps 750 mmHg 93%
    01:00 +6°C° 0.4 mm 5 mps 750 mmHg 94%
    02:00 +5°C° 0.5 mm 5 mps 751 mmHg 92%
    03:00 +3°C° 0.5 mm 6 mps 751 mmHg 91%
    04:00 +3°C° 0.5 mm 6 mps 752 mmHg 89%
    05:00 0°C° 0 mm 7 mps 753 mmHg 85%
    06:00 -1°C° 0 mm 7 mps 754 mmHg 81%
    07:00 -4°C° 0 mm 8 mps 756 mmHg 77%
    08:00 -3°C° 0 mm 7 mps 757 mmHg 69%
    09:00 -3°C° 0 mm 7 mps 758 mmHg 62%
    10:00 -3°C° 0 mm 6 mps 760 mmHg 55%
    11:00 -3°C° 0 mm 6 mps 761 mmHg 51%
    12:00 -2°C° 0 mm 6 mps 761 mmHg 47%
    13:00 -1°C° 0 mm 5 mps 762 mmHg 43%
    14:00 -1°C° 0 mm 5 mps 762 mmHg 42%
    15:00 -2°C° 0 mm 5 mps 763 mmHg 41%
    16:00 -2°C° 0 mm 5 mps 763 mmHg 39%
    17:00 -2°C° 0 mm 5 mps 764 mmHg 42%
    18:00 -3°C° 0 mm 4 mps 764 mmHg 44%
    19:00 -4°C° 0 mm 4 mps 765 mmHg 46%
    20:00 -4°C° 0 mm 4 mps 765 mmHg 46%
    21:00 -4°C° 0 mm 4 mps 766 mmHg 45%
    22:00 -4°C° 0 mm 4 mps 766 mmHg 44%
    23:00 -4°C° 0 mm 3 mps 766 mmHg 43%

    Day after tomorrow, 23 February, Saturday

    Time Temperature Precipitation Wind Pressure Humidity
    00:00 -4°C° 0 mm 3 mps 767 mmHg 42%
    01:00 -4°C° 0 mm 3 mps 767 mmHg 40%
    02:00 -4°C° 0 mm 3 mps 767 mmHg 40%
    03:00 -4°C° 0 mm 2 mps 767 mmHg 40%
    04:00 -4°C° 0 mm 2 mps 766 mmHg 39%
    05:00 -4°C° 0 mm 2 mps 767 mmHg 39%
    06:00 -4°C° 0 mm 2 mps 767 mmHg 39%
    07:00 -4°C° 0 mm 2 mps 767 mmHg 39%
    08:00 -3°C° 0 mm 2 mps 767 mmHg 36%
    09:00 -3°C° 0 mm 2 mps 767 mmHg 33%
    10:00 -2°C° 0 mm 2 mps 768 mmHg 30%
    11:00 -2°C° 0 mm 2 mps 767 mmHg 28%
    12:00 -1°C° 0 mm 2 mps 767 mmHg 26%
    13:00 +1°C° 0 mm 1 mps 767 mmHg 24%
    14:00 +1°C° 0 mm 1 mps 766 mmHg 24%
    15:00 +2°C° 0 mm 1 mps 766 mmHg 25%
    16:00 +2°C° 0 mm 1 mps 766 mmHg 26%
    17:00 +1°C° 0 mm 1 mps 766 mmHg 29%
    18:00 0°C° 0 mm 1 mps 766 mmHg 32%
    19:00 -1°C° 0 mm 1 mps 766 mmHg 35%
    20:00 -1°C° 0 mm 1 mps 766 mmHg 35%
    21:00 -1°C° 0 mm 1 mps 766 mmHg 35%
    22:00 -1°C° 0 mm 1 mps 766 mmHg 35%
    23:00 -1°C° 0 mm 1 mps 765 mmHg 35%

    24 February, Sunday

    Time Temperature Precipitation Wind Pressure Humidity
    00:00 0°C° 0 mm 1 mps 765 mmHg 35%
    01:00 0°C° 0 mm 1 mps 765 mmHg 35%
    02:00 0°C° 0 mm 1 mps 765 mmHg 35%
    03:00 -3°C° 0 mm 2 mps 764 mmHg 36%
    04:00 -3°C° 0 mm 2 mps 764 mmHg 37%
    05:00 -2°C° 0 mm 2 mps 764 mmHg 36%
    06:00 -2°C° 0 mm 2 mps 764 mmHg 36%
    07:00 -2°C° 0 mm 2 mps 763 mmHg 36%
    08:00 -1°C° 0 mm 2 mps 763 mmHg 34%
    09:00 +1°C° 0 mm 2 mps 763 mmHg 31%
    10:00 +2°C° 0 mm 2 mps 763 mmHg 29%
    11:00 +1°C° 0 mm 3 mps 763 mmHg 30%
    12:00 +2°C° 0 mm 3 mps 763 mmHg 31%
    13:00 +3°C° 0 mm 3 mps 762 mmHg 32%
    14:00 +2°C° 0 mm 3 mps 762 mmHg 38%
    15:00 +2°C° 0 mm 3 mps 762 mmHg 43%
    16:00 +3°C° 0 mm 2 mps 762 mmHg 48%
    17:00 +3°C° 0 mm 2 mps 762 mmHg 53%
    18:00 +2°C° 0 mm 2 mps 762 mmHg 59%
    19:00 +1°C° 0 mm 2 mps 762 mmHg 65%
    20:00 +1°C° 0 mm 2 mps 762 mmHg 69%
    21:00 +1°C° 0 mm 2 mps 762 mmHg 74%
    22:00 +1°C° 0 mm 2 mps 762 mmHg 78%
    23:00 -1°C° 0 mm 2 mps 762 mmHg 82%

    25 February, Monday

    Time Temperature Precipitation Wind Pressure Humidity
    00:00 -1°C° 0 mm 2 mps 762 mmHg 86%
    01:00 -1°C° 0 mm 2 mps 762 mmHg 89%
    02:00 -1°C° 0 mm 2 mps 761 mmHg 91%
    03:00 -1°C° 0 mm 2 mps 761 mmHg 92%
    04:00 -1°C° 0 mm 2 mps 761 mmHg 93%
    05:00 -1°C° 0 mm 2 mps 761 mmHg 93%
    06:00 -1°C° 0 mm 2 mps 761 mmHg 94%
    07:00 -2°C° 0 mm 2 mps 762 mmHg 94%
    08:00 +1°C° 0 mm 2 mps 762 mmHg 90%
    09:00 +2°C° 0 mm 2 mps 762 mmHg 86%
    10:00 +3°C° 0 mm 2 mps 763 mmHg 83%
    11:00 +4°C° 0 mm 2 mps 763 mmHg 81%
    12:00 +5°C° 0 mm 2 mps 763 mmHg 80%
    13:00 +6°C° 0 mm 1 mps 763 mmHg 79%
    14:00 +7°C° 0 mm 1 mps 763 mmHg 79%
    15:00 +7°C° 0 mm 1 mps 762 mmHg 79%
    16:00 +7°C° 0 mm 1 mps 762 mmHg 79%
    17:00 +6°C° 0 mm 1 mps 762 mmHg 83%
    18:00 +5°C° 0 mm 1 mps 762 mmHg 86%
    19:00 +5°C° 0 mm 1 mps 763 mmHg 89%
    20:00 +4°C° 0 mm 1 mps 763 mmHg 89%
    21:00 +3°C° 0 mm 1 mps 763 mmHg 90%
    22:00 +2°C° 0 mm 0 mps 763 mmHg 90%
    23:00 +3°C° 0 mm 1 mps 762 mmHg 90%

    26 February, Tuesday

    Time Temperature Precipitation Wind Pressure Humidity
    00:00 +3°C° 0 mm 1 mps 762 mmHg 90%
    01:00 +3°C° 0 mm 1 mps 762 mmHg 89%
    02:00 +1°C° 0 mm 2 mps 761 mmHg 90%
    03:00 +1°C° 0 mm 2 mps 761 mmHg 90%
    04:00 +1°C° 0 mm 2 mps 760 mmHg 91%
    05:00 +1°C° 0 mm 2 mps 760 mmHg 91%
    06:00 0°C° 0 mm 3 mps 759 mmHg 92%
    07:00 0°C° 0 mm 3 mps 759 mmHg 92%
    08:00 +2°C° 0 mm 3 mps 759 mmHg 88%
    09:00 +3°C° 0 mm 4 mps 758 mmHg 84%
    10:00 +5°C° 0 mm 5 mps 758 mmHg 79%
    11:00 +6°C° 0 mm 5 mps 758 mmHg 74%
    12:00 +7°C° 0 mm 5 mps 757 mmHg 70%
    13:00 +8°C° 0 mm 6 mps 756 mmHg 65%
    14:00 +8°C° 0 mm 6 mps 756 mmHg 64%
    15:00 +8°C° 0 mm 6 mps 756 mmHg 63%
    16:00 +9°C° 0 mm 6 mps 755 mmHg 62%
    17:00 +8°C° 0 mm 5 mps 755 mmHg 65%
    18:00 +7°C° 0 mm 5 mps 755 mmHg 68%
    19:00 +7°C° 0 mm 4 mps 756 mmHg 71%
    20:00 +6°C° 0 mm 4 mps 756 mmHg 75%
    21:00 +6°C° 0 mm 4 mps 756 mmHg 80%
    22:00 +5°C° 0 mm 4 mps 756 mmHg 84%
    23:00 +4°C° 0 mm 3 mps 756 mmHg 87%
    Show more